Vorticity
nan nan nan nan nan nan nan nan nan nan nan nan nan nan nan nan nan nan nan nan nan nan nan nan nan nan nan nan nan nan nan nan nan nan nan nan nan nan nan nan nan nan nan
nan 14 11 11 14 13 8 11 12 7 4 6 8 8 8 9 8 9 10 9 8 9 9 7 8 6 7 9 7 6 5 8 7 5 8 11 11 13 9 8 10 9 nan
nan 12 7 9 10 11 14 12 11 11 7 5 5 7 9 8 8 10 11 10 9 8 9 8 7 7 8 8 9 10 7 6 8 11 2 6 11 8 8 7 7 10 nan
nan 10 8 8 10 10 8 11 17 14 11 7 6 8 6 7 8 9 9 13 13 8 8 7 8 7 7 7 9 10 10 8 5 8 10 2 4 3 4 9 10 8 nan
nan 8 8 8 11 12 10 10 9 14 18 12 7 7 8 9 9 9 9 10 14 15 10 8 8 7 8 8 7 6 8 8 10 6 9 12 5 8 9 7 9 10 nan
nan 8 6 8 7 8 11 15 14 10 10 15 11 7 7 7 8 8 9 9 10 14 15 11 9 10 8 8 8 8 8 10 10 7 6 9 10 11 9 9 10 9 nan
nan 7 8 4 7 9 9 7 8 10 9 9 10 12 9 8 7 7 8 8 8 9 12 13 11 10 11 11 10 11 10 10 10 6 5 7 8 9 9 9 9 10 nan
nan 8 9 7 7 6 8 13 12 10 8 8 9 10 11 10 12 10 8 9 9 9 9 10 11 11 9 8 9 8 8 10 10 9 9 9 9 9 10 9 7 7 nan
nan 8 7 8 8 8 6 8 10 10 10 11 11 11 12 13 12 11 12 10 10 9 10 11 13 12 10 8 8 8 9 10 11 11 9 9 9 10 9 10 8 7 nan
nan 7 6 8 8 9 7 8 11 10 9 10 10 9 9 11 12 12 12 12 13 12 9 9 13 16 13 11 10 8 10 9 8 11 12 8 10 10 9 9 8 9 nan
nan 9 7 8 8 8 9 9 8 8 9 10 10 10 10 10 11 10 10 11 10 12 14 15 14 11 12 15 11 10 11 11 8 9 11 10 11 7 8 9 9 8 nan
nan 8 8 8 8 8 8 9 8 8 8 8 8 9 9 9 10 10 9 10 9 10 10 11 12 14 15 17 17 13 8 8 11 11 11 9 9 9 7 10 9 7 nan
nan 9 9 8 7 8 8 8 9 8 8 8 8 8 8 8 8 8 8 9 9 10 10 9 9 11 13 14 16 18 18 15 12 9 6 9 9 7 9 8 5 8 nan
nan 6 7 9 9 9 8 7 7 8 9 8 8 9 9 10 8 9 8 8 9 10 11 10 10 12 11 9 10 11 11 16 19 15 12 13 8 7 7 9 8 8 nan
nan 6 7 8 9 7 7 7 7 9 9 9 8 9 9 9 9 9 10 10 9 8 10 11 13 11 5 7 9 10 11 12 12 12 16 19 18 17 14 11 11 12 nan
nan 10 9 7 7 7 8 7 8 8 8 9 9 8 10 10 10 9 8 9 9 10 10 10 12 10 6 4 14 16 14 11 12 12 12 12 13 15 18 17 18 23 nan
nan 9 7 8 8 8 9 9 9 8 9 9 8 9 9 9 9 10 10 10 11 10 9 10 11 8 4 8 15 16 16 10 10 12 12 12 9 11 12 14 18 13 nan
nan 7 8 9 9 10 9 8 9 9 8 9 8 9 9 10 10 10 9 11 12 9 10 10 9 6 2 6 11 17 14 8 8 10 13 11 8 11 14 12 8 6 nan
nan 11 10 8 8 9 10 10 8 9 9 8 9 9 10 11 10 11 10 11 10 10 10 9 7 10 4 4 11 18 14 9 9 8 7 9 6 5 14 15 9 9 nan
nan 11 9 9 9 9 9 9 9 8 8 9 9 9 10 10 10 9 11 11 9 10 10 9 9 11 8 5 9 16 13 9 9 8 6 8 8 8 12 13 11 11 nan
nan 9 7 9 9 10 10 9 8 8 9 9 9 9 10 9 10 9 9 9 9 8 9 10 9 10 11 4 5 12 13 10 10 9 9 4 4 7 10 13 12 9 nan
nan 7 6 7 11 12 10 8 7 9 11 10 8 9 11 10 8 9 10 9 10 11 10 10 10 7 6 8 5 7 11 12 12 10 10 4 5 8 10 9 7 11 nan
nan 6 8 8 8 9 12 9 9 10 9 9 9 9 9 10 10 9 10 10 9 11 10 10 10 9 10 8 5 7 11 15 16 12 9 8 8 11 8 7 13 14 nan
nan 10 8 7 8 8 10 9 10 10 10 10 11 9 8 9 12 10 9 9 10 10 9 10 11 11 11 9 7 10 11 13 13 11 14 14 12 13 11 11 12 12 nan
nan 10 10 9 9 9 8 8 9 12 11 10 8 10 10 9 9 10 10 12 12 8 7 8 8 9 9 5 6 10 11 10 12 15 14 11 12 12 12 12 11 11 nan
nan nan nan nan nan nan nan nan nan nan nan nan nan nan nan nan nan nan nan nan nan nan nan nan nan nan nan nan nan nan nan nan nan nan nan nan nan nan nan nan nan nan nan
CAPE
0 0 0 21 53 168 1008 1230 1536 1753 1947 2131 2141 1858 1858 1629 1796 1695 1871 1716 1903 1978 1858 1850 1605 1720 1391 1388 1464 1618 1521 1456 1511 1059 985 999 1269 1104 898 970 789 514 196
0 0 0 0 300 258 687 1437 1716 1858 1741 1939 2046 2000 1727 1652 1532 1580 1663 1781 1770 1881 1979 1892 1873 1701 1550 1637 1601 1655 1580 1656 1582 1398 1186 1139 1237 1340 1089 1152 929 774 286
0 0 0 27 151 494 1213 1204 1685 2249 1917 1686 1872 1848 2010 1687 1474 1567 1516 1635 1674 1849 1791 1999 1955 1782 1799 1576 1594 1701 1661 1664 1648 1569 1420 1051 829 594 2 0 0 78 93
1 78 111 72 29 108 195 391 1053 1981 2229 2197 2053 1925 1800 1719 1716 1607 1623 1587 1880 1663 1847 1836 1858 1967 1785 1765 1786 1777 1745 1754 1640 1768 1411 1207 593 356 0 0 0 0 0
175 215 215 274 164 35 44 124 202 292 2324 2534 2339 2416 2715 2422 2276 2175 1981 2250 2244 2143 1941 1980 2009 1704 2034 1870 1846 1905 2000 1923 1805 1619 1621 1574 1570 760 562 578 0 3 2
214 249 315 630 911 667 883 981 472 307 1447 2426 3175 3104 3203 3125 2953 2613 2733 2758 2881 2984 2652 2278 2189 2059 1821 1875 1992 1884 2109 2010 1991 1900 1737 622 4 1 0 0 1 0 0
167 209 266 339 749 1268 1515 1096 974 1126 1449 1999 2371 2861 3261 3163 3033 2893 2917 2848 2715 2743 2903 3155 2723 2481 2359 2245 2094 2138 2159 2146 1873 1665 1276 1083 232 82 0 54 35 0 0
258 211 63 82 210 482 589 672 1155 1653 1683 1813 2074 2460 2751 2707 2867 2848 2773 2772 2748 2783 2810 3074 3003 2801 2479 1994 1683 1596 1602 1630 1621 1586 1195 916 724 447 0 56 0 0 1
223 136 65 144 146 248 341 290 164 215 244 328 436 571 959 1589 1953 2113 2406 2717 2808 2583 2492 2571 2455 2565 2205 1896 1481 1342 1292 1209 1191 1165 953 965 632 298 24 0 0 0 34
107 87 47 150 114 258 332 358 195 149 150 278 354 414 570 712 883 1050 1259 1601 2057 2384 2395 2136 2045 1783 2094 1840 1474 1317 1183 1160 1132 936 901 827 857 104 1 0 0 0 4
47 108 97 203 165 166 192 173 136 236 312 396 483 573 684 768 888 923 766 783 872 988 1298 1215 1155 1257 1010 1414 1397 1308 1191 977 1088 826 661 512 240 5 0 0 0 0 1
183 66 100 206 134 18 1 0 0 0 0 0 1 23 45 75 201 330 388 433 501 337 302 355 449 699 536 663 774 1011 764 681 525 551 238 103 1 0 0 0 0 1 0
183 139 156 86 20 1 0 0 0 0 0 0 0 0 0 0 0 0 0 0 0 11 17 41 32 7 7 12 50 204 312 353 422 395 177 45 0 0 0 0 0 0 1
198 195 146 57 8 0 0 0 0 0 0 0 0 0 0 0 0 0 0 0 0 0 0 0 0 0 1 0 0 0 0 5 126 191 181 104 3 2 0 0 0 0 0
157 189 116 19 0 0 0 0 0 0 0 0 0 0 0 0 0 0 0 0 0 0 0 0 0 0 0 0 0 0 0 0 1 2 7 4 4 6 4 0 0 0 0
51 132 45 3 0 0 0 0 0 0 0 0 0 0 0 0 0 0 0 0 0 0 0 0 1 0 0 0 0 0 0 2 3 2 1 1 0 0 0 1 1 1 1
48 106 16 0 0 0 0 0 0 0 0 0 0 0 0 0 0 0 0 0 1 0 0 0 0 0 0 0 0 0 1 1 1 1 1 1 1 0 0 0 0 0 0
49 12 0 0 0 0 0 0 0 0 0 0 0 0 0 0 0 0 0 0 0 0 3 1 2 0 0 0 0 0 0 0 0 0 1 1 1 0 0 0 0 0 0
0 1 0 0 0 0 0 0 0 0 0 0 0 0 0 0 0 0 0 0 0 1 2 1 3 2 0 0 0 0 2 0 0 0 0 1 1 0 0 0 0 0 0
0 0 0 0 0 0 0 0 0 0 0 0 0 0 0 0 0 0 1 2 0 0 3 2 0 0 0 0 0 0 2 0 1 0 0 0 0 0 0 0 0 0 0
0 0 0 0 0 0 0 0 0 0 0 0 0 0 0 0 3 2 7 7 3 3 0 1 5 1 0 1 0 0 1 1 1 0 0 0 0 0 0 0 0 0 0
0 0 0 0 0 0 0 0 0 0 0 0 1 1 2 1 0 0 1 1 1 0 0 2 0 0 0 1 0 0 0 0 2 0 0 0 0 0 0 0 0 0 0
0 0 0 0 0 0 0 0 0 0 0 0 3 2 0 3 3 1 0 0 0 0 0 0 0 0 0 0 0 0 0 0 0 0 0 0 0 0 1 0 0 0 1
0 0 0 0 0 0 0 0 0 0 0 0 0 1 0 0 0 0 0 0 0 1 0 0 2 1 0 0 1 0 0 0 0 0 0 0 1 1 0 0 0 0 0
0 0 0 0 0 0 0 0 0 0 0 0 0 0 4 5 4 2 0 0 4 0 3 7 3 0 0 0 1 0 0 0 0 0 0 0 0 0 0 0 0 0 0
0 0 0 0 0 0 0 0 0 0 0 0 1 0 0 0 0 0 0 1 6 0 0 0 0 0 0 0 0 0 0 0 0 0 0 0 0 0 0 0 0 0 0